Content
SEND FEEDBACK

Daily
Averages
Monthly
Summary
United States of America

RAPID CITY, SOUTH DAKOTA


Home > North America > United States > South Dakota
Elevation: 3162 feet     Latitude: 44 03N     Longitude: 103 04W

WEATHER
 
SELECT A DAY
Number of Records: 200,194;   Date Range: 1/1/95 - 7/20/14
 
SHARE

PRINT THIS DATA

[ ← Previous Day ]
WEATHER ALMANAC - JANUARY 20, 2014
[ Next Day → ]
[ °C ]   °F
Weather ElementAverageHighLow
Temperature27.5 °F37 °F (10:52 am)14 °F (11:52 pm)
Dewpoint15.8 °F21 °F (12:52 pm)9 °F (8:52 pm)
Humidity63.2 %88 % (11:52 pm)44 % (10:52 am)
Barometer30.30 in30.49 in (6:52 pm)30.03 in (1:52 am)
Wind Speed21.7 mph46 mph (9:52 am)
Wind Gust63.3 mph (10:52 am)
Weather ElementAverage
Visibility10 mi
Wind DirectionSW (228.6 °)

Weather ElementTotal
Precipitation---
Heating Degree Days39.5 (Base 65)
Averaged from 29 records on January 20, 2014
WEATHER CONDITIONS BREAKOUT
WIND DIRECTION BREAKOUT
WEATHER BY HOUR - JANUARY 20, 2014
[ °C ]   °F
Local TimeTemperatureDewpointHumidityBarometerVisibilityWind DirectionWind SpeedGust SpeedPrecipitationEventsConditions
1:52 AM36.0 °F19.0 °F50 %30.03 in10.0 miNNW (330°)18.4 mph29.9 mphClear
2:52 AM35.1 °F18.0 °F50 %30.06 in10.0 miNW (310°)13.8 mphClear
3:52 AM36.0 °F17.1 °F46 %30.08 in10.0 miNorth (350°)20.7 mph26.5 mphClear
4:52 AM34.0 °F16.0 °F48 %30.12 in10.0 miNNW (330°)21.9 mph33.4 mphClear
5:52 AM35.1 °F17.1 °F48 %30.14 in10.0 miNW (320°)35.7 mph46.0 mphClear
6:52 AM34.0 °F17.1 °F50 %30.17 in10.0 miNNW (330°)32.2 mph40.3 mphClear
7:52 AM35.1 °F17.1 °F48 %30.19 in10.0 miNW (320°)33.4 mph43.7 mphClear
8:52 AM36.0 °F17.1 °F46 %30.21 in10.0 miNNW (330°)41.4 mph54.1 mphPartly Cloudy
9:52 AM36.0 °F18.0 °F48 %30.25 in10.0 miNNW (330°)46.0 mph61.0 mphPartly Cloudy
10:52 AM37.0 °F17.1 °F44 %30.29 in10.0 miNNW (330°)40.3 mph63.3 mphPartly Cloudy
11:52 AM37.0 °F19.0 °F48 %30.29 in10.0 miNNW (340°)42.6 mph56.4 mphScattered Clouds
12:00 PM35.6 °F19.4 °F52 %30.22 in9.0 miNNW (330°)44.9 mph54.1 mphPartly Cloudy
12:52 PM34.0 °F21.0 °F59 %30.32 in10.0 miNorth (350°)34.5 mph43.7 mphMostly Cloudy
1:52 PM33.1 °F21.0 °F61 %30.32 in10.0 miNorth (350°)32.2 mph43.7 mphClear
2:52 PM32.0 °F21.0 °F64 %30.35 in10.0 miNorth (360°)29.9 mph38.0 mphClear
3:52 PM28.9 °F19.9 °F69 %30.39 in10.0 miNorth (360°)21.9 mph28.8 mphClear
4:52 PM26.1 °F19.0 °F75 %30.43 in10.0 miNorth (360°)18.4 mphClear
5:37 PM26.6 °F19.4 °F74 %30.36 in10.0 miNNE (20°)15.0 mphMostly Cloudy
5:52 PM23.0 °F15.1 °F72 %30.46 in10.0 miNNE (20°)16.1 mphMostly Cloudy
6:27 PM19.4 °F12.2 °F74 %30.36 in10.0 miNNE (30°)16.1 mphScattered Clouds
6:52 PM19.0 °F12.0 °F74 %30.49 in10.0 miNNE (30°)9.2 mphClear
7:21 PM17.6 °F12.2 °F79 %30.37 in10.0 miCalmMostly Cloudy
7:52 PM19.0 °F12.9 °F77 %30.49 in10.0 miCalmOvercast
8:52 PM16.0 °F9.0 °F74 %30.49 in10.0 miSE (130°)5.8 mphOvercast
9:42 PM15.8 °F10.4 °F79 %30.33 in10.0 miSE (130°)6.9 mphOvercast
9:52 PM16.0 °F10.0 °F77 %30.46 in10.0 miSE (130°)8.1 mphOvercast
10:52 PM15.1 °F10.0 °F80 %30.44 in10.0 miSE (140°)8.1 mphOvercast
11:36 PM15.8 °F10.4 °F79 %30.29 in10.0 miSE (140°)6.9 mphScattered Clouds
11:52 PM14.0 °F10.9 °F88 %30.41 in10.0 miSE (130°)8.1 mphClear
Hourly data recorded from KRAP, located miles away from Rapid City, South Dakota







STORIES FROM OUR PARTNERS